EW1714 Weather Reports


Display with metric or nautical units.
time (UTC)temp
F
wind
direction
speed
MPH
gust
MPH
rain 1hr
in
rain 24hr
in
rain mn
in
humidity
%
barometer
mb
20200402104548 41 229 0.0 11.0 0.00 0.00 0.00 75 1002.9
20200402103056 41 17 2.0 9.0 0.00 0.00 0.00 75 1002.8
20200402101640 41 257 1.0 12.0 0.00 0.00 0.00 74 1002.7
20200402100154 41 355 3.0 12.0 0.00 0.00 0.00 74 1002.8
20200402094600 41 322 1.0 7.0 0.00 0.00 0.00 74 1002.9
20200402093110 41 22 1.0 9.0 0.00 0.00 0.00 74 1002.9
20200402090048 41 355 3.0 9.0 0.00 0.00 0.00 74 1002.9
20200402084539 41 338 1.0 7.0 0.00 0.00 0.00 74 1003.1
20200402083131 41 355 2.0 9.0 0.00 0.00 0.00 73 1003.3
20200402081559 41 344 2.0 11.0 0.00 0.00 0.00 72 1003.4
20200402080127 41 340 2.0 11.0 0.00 0.00 0.00 72 1003.6
20200402074551 41 333 4.0 7.0 0.00 0.00 0.00 72 1003.8
20200402073109 41 344 3.0 9.0 0.00 0.00 0.00 72 1003.8
20200402071626 41 340 1.0 12.0 0.00 0.00 0.00 71 1003.9
20200402070221 41 360 1.0 9.0 0.00 0.00 0.00 71 1004.1
20200402064852 41 355 3.0 7.0 0.00 0.00 0.00 70 1004.3
20200402063043 41 11 4.0 9.0 0.00 0.00 0.00 70 1004.5
20200402061523 42 360 3.0 11.0 0.00 0.00 0.00 69 1004.7
20200402060103 42 355 3.0 14.0 0.00 0.00 0.00 69 1004.9
20200402054551 42 337 2.0 10.0 0.00 0.00 0.00 68 1005.1
20200402053015 42 24 3.0 8.0 0.00 0.00 0.00 68 1005.1
20200402051516 42 343 1.0 6.0 0.00 0.00 0.00 67 1005.2
20200402050111 42 22 0.0 6.0 0.00 0.00 0.00 67 1005.4
20200402044523 42 335 2.0 9.0 0.00 0.00 0.00 66 1005.6
20200402043053 43 5 1.0 8.0 0.00 0.00 0.00 66 1005.7
20200402041523 43 355 0.0 6.0 0.00 0.00 0.00 65 1005.9
20200402040011 43 10 2.0 8.0 0.00 0.00 0.00 65 1005.9
20200402034520 43 34 2.0 5.0 0.00 0.00 0.00 65 1006.1
20200402033006 43 355 2.0 7.0 0.00 0.00 0.00 64 1006.2
20200402031503 43 360 3.0 8.0 0.00 0.00 0.00 64 1006.3
20200402030008 43 336 2.0 7.0 0.00 0.00 0.00 64 1006.2
20200402024510 44 340 3.0 7.0 0.00 0.00 0.00 64 1006.3
20200402023032 44 13 0.0 5.0 0.00 0.00 0.00 64 1006.3
20200402021516 44 5 0.0 6.0 0.00 0.00 0.00 63 1006.5
20200402020040 44 339 0.0 3.0 0.00 0.00 0.00 63 1006.5
20200402014504 45 350 1.0 6.0 0.00 0.00 0.00 62 1006.8
20200402013002 45 12 2.0 6.0 0.00 0.00 0.00 62 1006.9
20200402011502 45 360 1.0 4.0 0.00 0.00 0.00 62 1007.1
20200402010009 45 355 1.0 3.0 0.00 0.00 0.00 62 1007.1
20200402004508 45 348 0.0 0.0 0.00 0.00 0.00 62 1007.1
20200402003009 45 348 1.0 5.0 0.00 0.00 0.00 62 1007.1
20200402001515 45 360 0.0 4.0 0.00 0.00 0.00 62 1007.1
20200402000126 45 5 0.0 3.0 0.00 0.00 0.00 62 1006.9
20200401234509 46 360 0.0 1.0 0.00 0.00 0.00 62 1006.8
20200401233018 46 360 0.0 3.0 0.00 0.00 0.00 60 1006.9
20200401231506 46 360 1.0 5.0 0.00 0.00 0.00 59 1006.8
20200401230002 46 15 2.0 5.0 0.00 0.00 0.00 58 1006.9
20200401224652 47 360 1.0 8.0 0.00 0.00 0.00 58 1006.9
20200401223155 47 340 2.0 8.0 0.00 0.00 0.00 57 1007.0
20200401221655 47 355 4.0 8.0 0.00 0.00 0.00 57 1007.1
20200401220136 47 12 3.0 10.0 0.00 0.00 0.00 56 1007.2
20200401214716 47 351 3.0 10.0 0.00 0.00 0.00 56 1007.2
20200401213147 47 345 2.0 9.0 0.00 0.00 0.00 56 1007.2
20200401211642 47 324 6.0 15.0 0.00 0.00 0.00 55 1007.2
20200401210114 48 340 7.0 13.0 0.00 0.00 0.00 54 1007.5
20200401204653 48 24 5.0 11.0 0.00 0.00 0.00 55 1007.5
20200401203138 48 344 5.0 14.0 0.00 0.00 0.00 54 1007.6
20200401201620 48 5 5.0 12.0 0.00 0.00 0.00 54 1007.7
20200401200124 48 42 3.0 10.0 0.00 0.00 0.00 54 1007.9
20200401194715 48 35 6.0 9.0 0.00 0.00 0.00 55 1007.9
20200401193130 49 346 4.0 8.0 0.00 0.00 0.00 53 1008.0
20200401191641 49 340 4.0 8.0 0.00 0.00 0.00 54 1008.1
20200401190154 49 341 3.0 10.0 0.00 0.00 0.00 52 1008.4
20200401184634 48 360 5.0 11.0 0.00 0.00 0.00 54 1008.4
20200401183122 48 350 7.0 15.0 0.00 0.00 0.00 54 1008.4
20200401181605 48 16 6.0 13.0 0.00 0.00 0.00 53 1008.5
20200401180033 47 355 5.0 14.0 0.00 0.00 0.00 54 1008.7
20200401174523 47 349 8.0 13.0 0.00 0.00 0.00 53 1008.8
20200401171708 47 36 5.0 13.0 0.00 0.00 0.00 54 1009.0
20200401170114 47 355 4.0 12.0 0.00 0.00 0.00 54 1009.2
20200401164556 47 48 4.0 10.0 0.00 0.00 0.00 55 1009.2
20200401161604 48 343 5.0 14.0 0.00 0.00 0.00 52 1009.6
20200401160120 48 334 4.0 12.0 0.00 0.00 0.00 53 1009.5
20200401154620 48 20 7.0 13.0 0.00 0.00 0.00 51 1010.0
20200401151551 49 9 3.0 12.0 0.00 0.00 0.00 53 1010.5
20200401150059 46 5 2.0 12.0 0.00 0.00 0.00 56 1010.7
20200401144554 47 355 4.0 12.0 0.00 0.00 0.00 58 1011.0
20200401141534 43 360 2.0 10.0 0.00 0.00 0.00 68 1011.2
20200401140020 40 43 4.0 10.0 0.00 0.00 0.00 72 1011.4
20200401134507 38 22 7.0 12.0 0.00 0.00 0.00 71 1011.6
20200401131509 36 5 5.0 10.0 0.00 0.00 0.00 76 1011.9
20200401130123 35 40 5.0 11.0 0.00 0.00 0.00 79 1012.0
20200401124643 34 5 5.0 12.0 0.00 0.00 0.00 85 1012.3
20200401121647 32 335 1.0 7.0 0.00 0.00 0.00 91 1012.4
20200401120126 31 5 2.0 7.0 0.00 0.00 0.00 93 1012.5
20200401114610 30 360 1.0 5.0 0.00 0.00 0.00 94 1012.3
20200401111624 28 355 0.0 0.0 0.00 0.00 0.00 93 1012.1
20200401110056 28 355 0.0 0.0 0.00 0.00 0.00 93 1012.3